When you browse on this site, cookies collect data to enhance your experience and personalize the content and advertising you see.
Visit our Privacy Policy to learn more. By continuing to use the site, you agree to this use of cookies and data.
  • In Germany
  • List of Countries
  • For 7 days
  • Water Temperature
  • Weather Map
  • Weather Widgets
  • user-avatar
    Login

    Hourly Weather Parakou

    Today, 31 May, Sunday

    Time Temperature Precipitation Wind Pressure Humidity
    00:00 +26°C° 0 mm 3 mps 728 mmHg 89%
    01:00 +25°C° 0.5 mm 3 mps 728 mmHg 91%
    02:00 +25°C° 0.5 mm 3 mps 728 mmHg 93%
    03:00 +24°C° 0.5 mm 3 mps 728 mmHg 94%
    04:00 +24°C° 0.4 mm 3 mps 728 mmHg 94%
    05:00 +24°C° 0.4 mm 2 mps 728 mmHg 94%
    06:00 +24°C° 0 mm 2 mps 728 mmHg 93%
    07:00 +26°C° 0 mm 2 mps 728 mmHg 86%
    08:00 +27°C° 0 mm 2 mps 729 mmHg 79%
    09:00 +29°C° 0 mm 2 mps 729 mmHg 72%
    10:00 +31°C° 0 mm 2 mps 729 mmHg 64%
    11:00 +32°C° 0 mm 2 mps 728 mmHg 56%
    12:00 +35°C° 0 mm 2 mps 729 mmHg 51%
    13:00 +35°C° 0 mm 2 mps 728 mmHg 48%
    14:00 +36°C° 0 mm 2 mps 727 mmHg 45%
    15:00 +36°C° 0 mm 1 mps 727 mmHg 43%
    16:00 +34°C° 0 mm 1 mps 727 mmHg 48%
    17:00 +33°C° 0 mm 1 mps 727 mmHg 53%
    18:00 +31°C° 0 mm 1 mps 727 mmHg 57%
    19:00 +30°C° 0.4 mm 1 mps 727 mmHg 63%
    20:00 +29°C° 0.4 mm 1 mps 728 mmHg 69%
    21:00 +28°C° 0.4 mm 1 mps 728 mmHg 74%
    22:00 +27°C° 0.7 mm 1 mps 728 mmHg 78%
    23:00 +26°C° 0.7 mm 1 mps 728 mmHg 83%

    Tomorrow, 1 June, Monday

    Time Temperature Precipitation Wind Pressure Humidity
    00:00 +26°C° 0.7 mm 1 mps 729 mmHg 87%
    01:00 +26°C° 0.2 mm 1 mps 728 mmHg 90%
    02:00 +25°C° 0.2 mm 2 mps 728 mmHg 92%
    03:00 +25°C° 0.2 mm 2 mps 728 mmHg 95%
    04:00 +25°C° 0 mm 2 mps 728 mmHg 95%
    05:00 +25°C° 0 mm 3 mps 728 mmHg 95%
    06:00 +25°C° 0 mm 3 mps 729 mmHg 95%
    07:00 +25°C° 0 mm 3 mps 729 mmHg 91%
    08:00 +26°C° 0 mm 2 mps 729 mmHg 88%
    09:00 +27°C° 0 mm 2 mps 729 mmHg 84%
    10:00 +30°C° 0 mm 2 mps 729 mmHg 73%
    11:00 +32°C° 0 mm 2 mps 729 mmHg 62%
    12:00 +36°C° 0 mm 2 mps 729 mmHg 51%
    13:00 +36°C° 0 mm 2 mps 728 mmHg 49%
    14:00 +36°C° 0 mm 1 mps 727 mmHg 47%
    15:00 +36°C° 0 mm 1 mps 727 mmHg 44%
    16:00 +35°C° 0 mm 1 mps 727 mmHg 49%
    17:00 +33°C° 0 mm 1 mps 726 mmHg 55%
    18:00 +32°C° 0 mm 1 mps 726 mmHg 60%
    19:00 +30°C° 0.7 mm 1 mps 727 mmHg 68%
    20:00 +29°C° 0.7 mm 1 mps 728 mmHg 75%
    21:00 +27°C° 0.7 mm 1 mps 728 mmHg 83%
    22:00 +27°C° 0.4 mm 2 mps 728 mmHg 86%
    23:00 +26°C° 0.4 mm 2 mps 728 mmHg 88%

    Day after tomorrow, 2 June, Tuesday

    Time Temperature Precipitation Wind Pressure Humidity
    00:00 +26°C° 0.4 mm 2 mps 728 mmHg 91%
    01:00 +26°C° 0 mm 3 mps 728 mmHg 91%
    02:00 +26°C° 0 mm 3 mps 728 mmHg 92%
    03:00 +26°C° 0 mm 4 mps 728 mmHg 93%
    04:00 +25°C° 0 mm 3 mps 728 mmHg 93%
    05:00 +25°C° 0 mm 3 mps 728 mmHg 93%
    06:00 +25°C° 0 mm 3 mps 728 mmHg 93%
    07:00 +27°C° 0 mm 3 mps 728 mmHg 85%
    08:00 +29°C° 0 mm 2 mps 729 mmHg 77%
    09:00 +30°C° 0 mm 2 mps 729 mmHg 69%
    10:00 +32°C° 0 mm 2 mps 729 mmHg 62%
    11:00 +35°C° 0 mm 2 mps 728 mmHg 54%
    12:00 +36°C° 0 mm 2 mps 728 mmHg 47%
    13:00 +37°C° 0 mm 2 mps 728 mmHg 45%
    14:00 +36°C° 0 mm 1 mps 727 mmHg 43%
    15:00 +37°C° 0 mm 1 mps 726 mmHg 41%
    16:00 +35°C° 0 mm 1 mps 726 mmHg 46%
    17:00 +34°C° 0 mm 1 mps 726 mmHg 51%
    18:00 +32°C° 0 mm 2 mps 726 mmHg 55%
    19:00 +31°C° 0.3 mm 2 mps 727 mmHg 65%
    20:00 +29°C° 0.3 mm 3 mps 727 mmHg 75%
    21:00 +27°C° 0.3 mm 3 mps 727 mmHg 84%
    22:00 +27°C° 0 mm 3 mps 728 mmHg 87%
    23:00 +26°C° 0 mm 3 mps 728 mmHg 89%

    3 June, Wednesday

    Time Temperature Precipitation Wind Pressure Humidity
    00:00 +26°C° 0 mm 3 mps 728 mmHg 91%
    01:00 +26°C° 0 mm 3 mps 727 mmHg 92%
    02:00 +25°C° 0 mm 3 mps 727 mmHg 93%
    03:00 +25°C° 0 mm 3 mps 726 mmHg 94%
    04:00 +25°C° 0 mm 3 mps 727 mmHg 94%
    05:00 +25°C° 0 mm 3 mps 727 mmHg 94%
    06:00 +25°C° 0 mm 2 mps 727 mmHg 94%
    07:00 +26°C° 0 mm 3 mps 727 mmHg 88%
    08:00 +28°C° 0 mm 3 mps 727 mmHg 81%
    09:00 +29°C° 0 mm 3 mps 727 mmHg 74%
    10:00 +31°C° 0 mm 3 mps 727 mmHg 66%
    11:00 +35°C° 0 mm 3 mps 727 mmHg 58%
    12:00 +37°C° 0 mm 3 mps 727 mmHg 50%
    13:00 +37°C° 0 mm 3 mps 726 mmHg 48%
    14:00 +37°C° 0 mm 3 mps 726 mmHg 46%
    15:00 +38°C° 0 mm 3 mps 725 mmHg 45%
    16:00 +36°C° 0 mm 3 mps 725 mmHg 51%
    17:00 +35°C° 0 mm 3 mps 725 mmHg 57%
    18:00 +33°C° 0 mm 3 mps 726 mmHg 64%
    19:00 +31°C° 0.1 mm 3 mps 726 mmHg 69%
    20:00 +30°C° 0.1 mm 4 mps 727 mmHg 74%
    21:00 +29°C° 0.1 mm 5 mps 727 mmHg 79%
    22:00 +28°C° 0 mm 4 mps 727 mmHg 81%
    23:00 +27°C° 0 mm 4 mps 727 mmHg 84%

    4 June, Thursday

    Time Temperature Precipitation Wind Pressure Humidity
    00:00 +27°C° 0 mm 3 mps 727 mmHg 87%
    01:00 +26°C° 0.7 mm 3 mps 727 mmHg 89%
    02:00 +26°C° 0.7 mm 3 mps 727 mmHg 91%
    03:00 +25°C° 0.7 mm 2 mps 726 mmHg 94%
    04:00 +25°C° 0.6 mm 3 mps 727 mmHg 93%
    05:00 +25°C° 0.6 mm 3 mps 727 mmHg 93%
    06:00 +25°C° 0.6 mm 3 mps 727 mmHg 93%
    07:00 +26°C° 0 mm 3 mps 728 mmHg 89%
    08:00 +27°C° 0 mm 3 mps 728 mmHg 85%
    09:00 +28°C° 0 mm 3 mps 729 mmHg 81%
    10:00 +29°C° 0 mm 3 mps 728 mmHg 76%
    11:00 +30°C° 0 mm 3 mps 728 mmHg 71%
    12:00 +31°C° 0 mm 2 mps 727 mmHg 67%
    13:00 +33°C° 0 mm 3 mps 727 mmHg 64%
    14:00 +34°C° 0 mm 3 mps 726 mmHg 61%
    15:00 +34°C° 0 mm 3 mps 726 mmHg 58%
    16:00 +32°C° 0 mm 2 mps 726 mmHg 62%
    17:00 +31°C° 0 mm 2 mps 726 mmHg 65%
    18:00 +30°C° 0 mm 2 mps 726 mmHg 69%
    19:00 +29°C° 0 mm 2 mps 726 mmHg 72%
    20:00 +29°C° 0 mm 2 mps 727 mmHg 75%
    21:00 +28°C° 0 mm 2 mps 727 mmHg 77%
    22:00 +28°C° 0 mm 2 mps 727 mmHg 79%
    23:00 +27°C° 0 mm 2 mps 728 mmHg 81%

    5 June, Friday

    Time Temperature Precipitation Wind Pressure Humidity
    00:00 +27°C° 0 mm 2 mps 728 mmHg 82%
    01:00 +26°C° 0 mm 2 mps 728 mmHg 85%
    02:00 +26°C° 0 mm 2 mps 727 mmHg 88%
    03:00 +26°C° 0 mm 2 mps 727 mmHg 91%
    04:00 +25°C° 0 mm 2 mps 727 mmHg 91%
    05:00 +25°C° 0 mm 2 mps 728 mmHg 92%
    06:00 +25°C° 0 mm 2 mps 728 mmHg 92%
    07:00 +27°C° 0 mm 2 mps 728 mmHg 85%
    08:00 +28°C° 0 mm 2 mps 729 mmHg 77%
    09:00 +30°C° 0 mm 3 mps 730 mmHg 70%
    10:00 +31°C° 0 mm 2 mps 729 mmHg 64%
    11:00 +34°C° 0 mm 2 mps 729 mmHg 57%
    12:00 +35°C° 0 mm 1 mps 728 mmHg 51%
    13:00 +35°C° 0 mm 1 mps 728 mmHg 49%
    14:00 +35°C° 0 mm 1 mps 727 mmHg 47%
    15:00 +35°C° 0 mm 1 mps 726 mmHg 45%
    16:00 +34°C° 0 mm 1 mps 726 mmHg 49%
    17:00 +33°C° 0 mm 1 mps 726 mmHg 53%
    18:00 +30°C° 0 mm 0 mps 726 mmHg 58%
    19:00 +29°C° 0 mm 0 mps 726 mmHg 60%
    20:00 +30°C° 0 mm 1 mps 727 mmHg 62%
    21:00 +29°C° 0 mm 1 mps 727 mmHg 64%
    22:00 +29°C° 0 mm 1 mps 727 mmHg 68%
    23:00 +28°C° 0 mm 1 mps 727 mmHg 72%
    Show more